148P/Anderson-LINEAR (2022)

Japanese version
Home page
Updated on April 23, 2023

---------------------------------------------------------------------

* Profile

* Pictures

* Orbital Elements

Epoch 2023 Feb. 25.0 TT = JDT 2460000.5
T 2022 June 13.70184 TT                                 Rudenko
q   1.6286404            (2000.0)            P               Q
n   0.14316004     Peri.    8.03932     -0.12584393     -0.98999675
a   3.6189966      Node    89.20663     +0.90660207     -0.14087557
e   0.5499746      Incl.    3.65799     +0.40278528     +0.00777833
P   6.88
>From 141 observations 2014 Aug. 27-2023 Apr. 18, mean residual 0".4.
     Nongravitational parameters A1 = +0.12, A2 = +0.0001.

* Magnitudes Graph

        m1 = 12.5 + 5 log d + 14.0 log r

---------------------------------------------------------------------

The orbital elements are published on M.P.E.C. 2023-H131.
The magnitudes graphs are made with Comet for Windows.

---------------------------------------------------------------------

Copyright(C) Seiichi Yoshida (comet@aerith.net). All rights reserved.